Time,TemperatureF,DewpointF,PressureIn,WindDirection,WindDirectionDegrees,WindSpeedMPH,WindSpeedGustMPH,Humidity,HourlyPrecipIn,Conditions,Clouds,dailyrainin,SoftwareType,DateUTC
2014-01-01 00:22:00,11.0,5.0,30.36,SW,235,7.0,11.0,76,0.00,,,0.00,,2014-01-01 05:22:00,
2014-01-01 00:43:00,11.0,5.0,30.36,WSW,240,7.0,9.0,76,0.00,,,0.00,,2014-01-01 05:43:00,
2014-01-01 00:53:00,11.0,5.0,30.37,WSW,242,5.0,9.0,76,0.00,,,0.00,,2014-01-01 05:53:00,
2014-01-01 01:12:00,11.0,5.0,30.36,WSW,243,5.0,8.0,75,0.00,,,0.00,,2014-01-01 06:12:00,
2014-01-01 01:22:00,10.0,3.0,30.36,WSW,239,6.0,9.0,74,0.00,,,0.00,,2014-01-01 06:22:00,
2014-01-01 01:42:00,10.0,3.0,30.36,WSW,242,6.0,8.0,73,0.00,,,0.00,,2014-01-01 06:42:00,
2014-01-01 01:53:00,9.0,2.0,30.36,WSW,240,4.0,6.0,73,0.00,,,0.00,,2014-01-01 06:53:00,
2014-01-01 02:22:00,8.0,1.0,30.37,WSW,240,1.0,5.0,71,0.00,,,0.00,,2014-01-01 07:22:00,
2014-01-01 02:42:00,8.0,1.0,30.37,WSW,240,0.0,2.0,72,0.00,,,0.00,,2014-01-01 07:42:00,
2014-01-01 02:52:00,8.0,1.0,30.37,WSW,240,0.0,2.0,73,0.00,,,0.00,,2014-01-01 07:52:00,
2014-01-01 03:22:00,7.0,0.0,30.37,WSW,240,0.0,1.0,73,0.00,,,0.00,,2014-01-01 08:22:00,
2014-01-01 03:42:00,7.0,0.0,30.37,WSW,240,0.0,2.0,74,0.00,,,0.00,,2014-01-01 08:42:00,
2014-01-01 03:52:00,7.0,0.0,30.37,WSW,240,0.0,4.0,74,0.00,,,0.00,,2014-01-01 08:52:00,
2014-01-01 04:11:00,7.0,0.0,30.37,WSW,240,0.0,2.0,74,0.00,,,0.00,,2014-01-01 09:11:00,
2014-01-01 04:22:00,7.0,1.0,30.37,WSW,240,0.0,1.0,75,0.00,,,0.00,,2014-01-01 09:22:00,
2014-01-01 04:43:00,6.0,0.0,30.36,WSW,240,0.0,0.0,75,0.00,,,0.00,,2014-01-01 09:43:00,
2014-01-01 04:53:00,5.0,-1.0,30.36,WSW,240,0.0,0.0,77,0.00,,,0.00,,2014-01-01 09:53:00,
2014-01-01 05:12:00,4.0,-1.0,30.37,WSW,240,0.0,1.0,80,0.00,,,0.00,,2014-01-01 10:12:00,
2014-01-01 05:23:00,4.0,-1.0,30.37,WSW,240,0.0,0.0,81,0.00,,,0.00,,2014-01-01 10:23:00,
2014-01-01 05:43:00,3.0,-1.0,30.37,WSW,240,0.0,0.0,82,0.00,,,0.00,,2014-01-01 10:43:00,
2014-01-01 05:53:00,3.0,-1.0,30.38,WSW,240,0.0,0.0,83,0.00,,,0.00,,2014-01-01 10:53:00,
2014-01-01 06:22:00,2.0,-2.0,30.39,WSW,240,0.0,0.0,83,0.00,,,0.00,,2014-01-01 11:22:00,
2014-01-01 06:42:00,2.0,-2.0,30.40,WSW,240,0.0,0.0,83,0.00,,,0.00,,2014-01-01 11:42:00,
2014-01-01 06:53:00,2.0,-2.0,30.40,WSW,240,0.0,0.0,84,0.00,,,0.00,,2014-01-01 11:53:00,
2014-01-01 07:12:00,2.0,-2.0,30.40,WSW,240,0.0,0.0,84,0.00,,,0.00,,2014-01-01 12:12:00,
2014-01-01 07:22:00,2.0,-1.0,30.41,WSW,240,0.0,0.0,85,0.00,,,0.00,,2014-01-01 12:22:00,
2014-01-01 07:42:00,2.0,-1.0,30.42,WSW,240,0.0,0.0,86,0.00,,,0.00,,2014-01-01 12:42:00,
2014-01-01 07:52:00,4.0,1.0,30.41,WSW,240,0.0,0.0,86,0.00,,,0.00,,2014-01-01 12:52:00,
2014-01-01 08:12:00,4.0,1.0,30.42,WSW,240,0.0,0.0,85,0.00,,,0.00,,2014-01-01 13:12:00,
2014-01-01 08:22:00,4.0,1.0,30.42,WSW,240,0.0,0.0,85,0.00,,,0.00,,2014-01-01 13:22:00,
2014-01-01 08:42:00,4.0,0.0,30.42,WSW,240,0.0,1.0,84,0.00,,,0.00,,2014-01-01 13:42:00,
2014-01-01 08:52:00,4.0,1.0,30.42,WSW,240,0.0,1.0,85,0.00,,,0.00,,2014-01-01 13:52:00,
2014-01-01 09:22:00,5.0,1.0,30.43,WSW,240,0.0,1.0,84,0.00,,,0.00,,2014-01-01 14:22:00,
2014-01-01 09:42:00,5.0,1.0,30.44,WSW,240,0.0,0.0,83,0.00,,,0.00,,2014-01-01 14:42:00,
2014-01-01 09:53:00,6.0,2.0,30.45,WSW,240,0.0,1.0,82,0.00,,,0.00,,2014-01-01 14:53:00,
2014-01-01 10:22:00,7.0,2.0,30.45,WSW,240,0.0,1.0,80,0.00,,,0.00,,2014-01-01 15:22:00,
2014-01-01 10:43:00,7.0,2.0,30.46,WSW,240,0.0,0.0,80,0.00,,,0.00,,2014-01-01 15:43:00,
2014-01-01 10:53:00,8.0,3.0,30.47,WSW,240,0.0,1.0,78,0.00,,,0.00,,2014-01-01 15:53:00,
2014-01-01 11:13:00,8.0,3.0,30.46,WSW,240,0.0,2.0,79,0.00,,,0.00,,2014-01-01 16:13:00,
2014-01-01 11:23:00,8.0,3.0,30.47,WSW,240,1.0,3.0,80,0.00,,,0.00,,2014-01-01 16:23:00,
2014-01-01 11:33:00,8.0,3.0,30.47,WSW,240,1.0,3.0,80,0.00,,,0.00,,2014-01-01 16:33:00,
2014-01-01 11:43:00,8.0,3.0,30.47,WSW,240,1.0,3.0,80,0.00,,,0.00,,2014-01-01 16:43:00,
2014-01-01 11:53:00,9.0,4.0,30.46,WSW,251,2.0,5.0,80,0.00,,,0.00,,2014-01-01 16:53:00,
2014-01-01 12:12:00,10.0,5.0,30.46,WSW,251,1.0,4.0,78,0.00,,,0.00,,2014-01-01 17:12:00,
2014-01-01 12:22:00,11.0,5.0,30.45,NW,309,5.0,6.0,77,0.00,,,0.00,,2014-01-01 17:22:00,
2014-01-01 12:43:00,11.0,4.0,30.45,NW,317,6.0,8.0,73,0.00,,,0.00,,2014-01-01 17:43:00,
2014-01-01 12:52:00,11.0,4.0,30.43,NW,313,8.0,9.0,73,0.00,,,0.00,,2014-01-01 17:52:00,
2014-01-01 13:12:00,11.0,4.0,30.42,NW,311,7.0,9.0,72,0.00,,,0.00,,2014-01-01 18:12:00,
2014-01-01 13:22:00,11.0,4.0,30.42,NW,317,7.0,10.0,73,0.00,,,0.00,,2014-01-01 18:22:00,
2014-01-01 13:42:00,12.0,4.0,30.42,NW,311,10.0,12.0,70,0.00,,,0.00,,2014-01-01 18:42:00,
2014-01-01 13:53:00,12.0,4.0,30.41,NW,313,10.0,12.0,70,0.00,,,0.00,,2014-01-01 18:53:00,
2014-01-01 14:12:00,12.0,4.0,30.40,WNW,296,9.0,11.0,69,0.00,,,0.00,,2014-01-01 19:12:00,
2014-01-01 14:22:00,12.0,4.0,30.40,NW,307,9.0,11.0,68,0.00,,,0.00,,2014-01-01 19:22:00,
2014-01-01 14:42:00,12.0,4.0,30.39,NW,309,10.0,11.0,68,0.00,,,0.00,,2014-01-01 19:42:00,
2014-01-01 14:52:00,12.0,3.0,30.39,NW,309,8.0,12.0,67,0.00,,,0.00,,2014-01-01 19:52:00,
2014-01-01 15:12:00,12.0,3.0,30.39,NW,306,8.0,11.0,66,0.00,,,0.00,,2014-01-01 20:12:00,
2014-01-01 15:22:00,12.0,3.0,30.39,NW,313,7.0,9.0,66,0.00,,,0.00,,2014-01-01 20:22:00,
2014-01-01 15:42:00,12.0,3.0,30.39,NW,315,7.0,11.0,67,0.00,,,0.00,,2014-01-01 20:42:00,
2014-01-01 15:53:00,12.0,4.0,30.38,NW,315,6.0,8.0,69,0.00,,,0.00,,2014-01-01 20:53:00,
2014-01-01 16:11:00,12.0,4.0,30.38,NW,315,9.0,11.0,69,0.00,,,0.00,,2014-01-01 21:11:00,
2014-01-01 16:22:00,13.0,4.0,30.38,NW,308,7.0,11.0,68,0.00,,,0.00,,2014-01-01 21:22:00,
2014-01-01 16:43:00,13.0,4.0,30.39,NW,310,9.0,12.0,67,0.00,,,0.00,,2014-01-01 21:43:00,
2014-01-01 16:53:00,13.0,4.0,30.39,NW,309,7.0,10.0,67,0.00,,,0.00,,2014-01-01 21:53:00,
2014-01-01 17:23:00,13.0,4.0,30.38,WNW,302,6.0,7.0,66,0.00,,,0.00,,2014-01-01 22:23:00,
2014-01-01 17:42:00,13.0,4.0,30.38,WNW,298,6.0,8.0,67,0.00,,,0.00,,2014-01-01 22:42:00,
2014-01-01 17:53:00,13.0,4.0,30.38,WNW,302,6.0,8.0,67,0.00,,,0.00,,2014-01-01 22:53:00,
2014-01-01 18:22:00,13.0,5.0,30.38,WNW,300,6.0,9.0,70,0.00,,,0.00,,2014-01-01 23:22:00,
2014-01-01 18:42:00,13.0,5.0,30.38,NW,306,8.0,11.0,71,0.00,,,0.00,,2014-01-01 23:42:00,
2014-01-01 18:52:00,13.0,6.0,30.38,NW,318,9.0,11.0,74,0.00,,,0.00,,2014-01-01 23:52:00,
2014-01-01 19:11:00,13.0,7.0,30.38,NW,307,10.0,14.0,78,0.00,,,0.00,,2014-01-02 00:11:00,
2014-01-01 19:22:00,13.0,8.0,30.38,NW,306,12.0,15.0,80,0.00,,,0.00,,2014-01-02 00:22:00,
2014-01-01 19:42:00,13.0,9.0,30.38,NW,308,10.0,14.0,83,0.00,,,0.00,,2014-01-02 00:42:00,
2014-01-01 19:52:00,13.0,9.0,30.38,WNW,301,10.0,14.0,85,0.00,,,0.00,,2014-01-02 00:52:00,
2014-01-01 20:11:00,12.0,9.0,30.37,NW,304,10.0,15.0,86,0.00,,,0.00,,2014-01-02 01:11:00,
2014-01-01 20:22:00,12.0,9.0,30.37,NW,308,10.0,14.0,86,0.00,,,0.00,,2014-01-02 01:22:00,
2014-01-01 20:42:00,13.0,10.0,30.37,NW,309,10.0,14.0,86,0.00,,,0.00,,2014-01-02 01:42:00,
2014-01-01 20:52:00,13.0,10.0,30.37,NW,311,10.0,14.0,87,0.00,,,0.00,,2014-01-02 01:52:00,
2014-01-01 21:12:00,12.0,9.0,30.37,NW,304,12.0,15.0,86,0.00,,,0.00,,2014-01-02 02:12:00,
2014-01-01 21:22:00,12.0,9.0,30.37,NW,304,11.0,15.0,87,0.00,,,0.00,,2014-01-02 02:22:00,
2014-01-01 22:12:00,12.0,9.0,30.37,WNW,302,10.0,13.0,87,0.00,,,0.00,,2014-01-02 03:12:00,
2014-01-01 22:22:00,12.0,9.0,30.37,NW,304,9.0,12.0,87,0.00,,,0.00,,2014-01-02 03:22:00,
2014-01-01 22:43:00,12.0,9.0,30.37,WNW,297,9.0,13.0,87,0.00,,,0.00,,2014-01-02 03:43:00,
2014-01-01 22:53:00,12.0,9.0,30.37,WNW,295,11.0,15.0,87,0.00,,,0.00,,2014-01-02 03:53:00,
2014-01-01 23:13:00,12.0,9.0,30.36,WNW,296,11.0,14.0,87,0.00,,,0.00,,2014-01-02 04:13:00,
2014-01-01 23:23:00,12.0,9.0,30.37,NW,304,11.0,15.0,87,0.00,,,0.00,,2014-01-02 04:23:00,
2014-01-01 23:43:00,12.0,9.0,30.36,NW,307,11.0,14.0,87,0.00,,,0.00,,2014-01-02 04:43:00,
2014-01-01 23:53:00,12.0,9.0,30.36,NW,311,13.0,16.0,86,0.00,,,0.00,,2014-01-02 04:53:00,